Regional Weather Roundup
Issued by NWS San Angelo, TX

Home | Current Version | Previous Version | Text Only | Print | Product List | Glossary On
Versions: 1 2 3 4 5 6 7 8 9 10 11 12 13 14 15 16 17 18 19 20 21 22 23 24 25 26 27 28 29 30 31 32 33 34 35 36 37 38 39 40 41 42 43 44 45 46 47 48 49 50
000
ASUS44 KSJT 191310
RWRSJT
WEST CENTRAL TEXAS REGIONAL WEATHER ROUNDUP
NATIONAL WEATHER SERVICE SAN ANGELO TX
700 AM CST THU JAN 19 2017

NOTE: "FAIR" INDICATES FEW OR NO CLOUDS BELOW 12,000 FEET WITH NO
SIGNIFICANT WEATHER AND/OR OBSTRUCTIONS TO VISIBILITY.

TXZ049-054-064>066-071>073-076>078-098-099-113-114-127-128-139-140-
154-155-168>170-191400
...LOCATIONS ACROSS WEST CENTRAL TEXAS...

CITY           SKY/WX    TMP DP  RH WIND       PRES   REMARKS
SAN ANGELO     PTCLDY    38  37  97 SW5       29.85F WCI  34
ABILENE        CLEAR     43  42  97 S10       29.79F WCI  37
DYESS AFB      CLEAR     42  37  82 S13       29.78F WCI  35
JUNCTION       CLOUDY    41  41 100 W5        29.89R FOG     WCI  38
SWEETWATER     CLEAR     45  40  83 S12       29.80F WCI  39
BROWNWOOD      FOG       45  45 100 S5        29.85S VSB 1/2
COLEMAN        FOG       39  39 100 S5        29.84F VSB 3/4 WCI  36
SONORA         FOG       36  36 100 CALM      29.94R VSB 1/4
OZONA          PTSUNNY   36  36 100 MISG      29.91S FOG
BRADY          NOT AVBL
$$

TEXAS PANHANDLE/OKLAHOMA PANHANDLE

CITY           SKY/WX    TMP DP  RH WIND       PRES   REMARKS
AMARILLO       CLEAR     37  31  78 SW15      29.61F WCI  28
BORGER         CLEAR     39  33  79 SW9       29.60F WCI  33
CANADIAN       PTCLDY    38  38  98 S3        29.63F FOG
DALHART        CLOUDY    27  23  85 W6        29.61S WCI  20
DUMAS          SUNNY     30  28  90 W8        29.60R WCI  22
GUYMON         NOT AVBL
HEREFORD       SUNNY     38  32  78 W13       29.64S WCI  30
PAMPA          SUNNY     35  32  88 SW10      29.62S WCI  28
PERRYTON       NOT AVBL
$$

SOUTHERN PANHANDLE/SOUTH PLAINS/ROLLING PLAINS

CITY           SKY/WX    TMP DP  RH WIND       PRES   REMARKS
LUBBOCK        CLEAR     41  36  82 SW17      29.70F WCI  32
SNYDER         CLEAR     37  37  98 SW7       29.78F WCI  32
CHILDRESS      CLEAR     42  38  85 S12       29.69S WCI  36
SEMINOLE       SUNNY     40  35  81 W12       29.79S WCI  33
$$

PERMIAN BASIN

CITY           SKY/WX    TMP DP  RH WIND       PRES   REMARKS
MIDLAND        CLEAR     47  35  63 SW15      29.81S
ODESSA         CLEAR     46  34  62 SW14      29.81F WCI  40
WINK           CLEAR     45  36  70 SW13      29.81S WCI  39
$$

FAR WEST/SOUTHWEST MOUNTAINS/TRANS PECOS

CITY           SKY/WX    TMP DP  RH WIND       PRES   REMARKS
ALPINE         SUNNY     44  31  60 SW14      29.98S WCI  37
DRYDEN           N/A     45  40  82 W9        29.88F
EL PASO        PTCLDY    47  33  58 W15       29.94S
FORT STOCKTON  CLEAR     46  35  65 SW14      29.87F WCI  40
GUADALUPE PASS CLEAR     37  33  85 W39G52    29.83R WCI  23
MARFA          CLEAR     30  28  92 SW7       29.97R WCI  23
PECOS          SUNNY     43  35  73 SW8       29.85S WCI  38
$$

DALLAS/FORT WORTH METROPLEX

CITY           SKY/WX    TMP DP  RH WIND       PRES   REMARKS
DFW AIRPORT    FOG       48  48 100 S8        29.81F VSB 1/8
FTW MEACHAM    CLOUDY    49  47  93 S8        29.83S FOG
DAL-EXECUTIVE  CLOUDY    49  49 100 S6        29.82F FOG
GRAND PRAIRIE  NOT AVBL
ADDISON        CLOUDY    50  48  93 SE7       29.83F FOG
MESQUITE       CLOUDY    50  50 100 CALM      29.85F FOG
LANCASTER      CLOUDY    49  47  95 CALM      29.86S
$$

NORTH CENTRAL TEXAS

CITY           SKY/WX    TMP DP  RH WIND       PRES   REMARKS
SHRMAN/DENISON CLOUDY   N/A N/A N/A S5        29.83F FOG
GAINESVILLE    SNOW      44  43  98 S9        29.85S VSB 1/4 WCI  38
BRIDGEPORT     CLOUDY    48  48 100 S6        29.83F
DENTON         FOG       46  46 100 S9        29.83F VSB 1/2
WAXAHACHIE     FOG       48  48 100 S3        29.85F VSB 3/4
GRANBURY       CLOUDY    50  47  90 S5        29.86R
$$

WESTERN NORTH TEXAS

CITY           SKY/WX    TMP DP  RH WIND       PRES   REMARKS
WICHITA FALLS  PTCLDY    39  38  96 S9        29.76F FOG     WCI  33
VERNON         SUNNY     42  38  87 S9        29.74S WCI  37
BRECKENRIDGE   SUNNY     44  44  99 S9        29.80F WCI  39
COMANCHE       CLOUDY    46  46 100 SW3       29.84F FOG
$$

CENTRAL AND SOUTH CENTRAL TEXAS

CITY           SKY/WX    TMP DP  RH WIND       PRES   REMARKS
AUSTIN/BERGSTM MOCLDY    52  50  93 W3        29.86F
WACO           CLOUDY    50  50 100 SW7       29.86F
HILLSBORO      CLOUDY    50  49  98 S9        29.86S FOG
TEMPLE         CLOUDY    51  50  96 S6        29.87F
KILLEEN-GRAY   CLOUDY    50  48  93 SW5       29.85F
FORT HOOD      NOT AVBL
GEORGETOWN     CLOUDY    52  48  87 SW6       29.88S
LAGO VISTA     CLOUDY    51  51  98 CALM      29.87F FOG
SAN MARCOS     MOCLDY    50  48  93 CALM      29.87F
NEW BRAUNFELS  MOCLDY    51  49  92 SW3       29.87F
RANDOLPH AFB   CLOUDY    52  52 100 S5        29.89R
SAN ANTONIO    CLOUDY    53  50  89 SW3       29.90R
STINSON        CLOUDY    54  51  90 W3        29.89R
PLEASANTON     NOT AVBL
LA GRANGE      LGT RAIN  54  53  98 W5        29.89R
GIDDINGS       CLOUDY    51  50  98 CALM      29.88F FOG
$$

EAST TEXAS

CITY           SKY/WX    TMP DP  RH WIND       PRES   REMARKS
PARIS          CLOUDY    48  46  93 CALM      29.85F VSB 3/4
CLARKSVILLE    NOT AVBL
TYLER          FOG       52  52 100 CALM      29.86R VSB 1/4
LONGVIEW       CLOUDY    53  53 100 CALM      29.86S FOG
PALESTINE      FOG       51  51 100 CALM      29.88S VSB 3/4
NACOGDOCHES    CLOUDY    54  52  94 S3        29.87S
$$

TEXAS HILL COUNTRY AND EDWARDS PLATEAU

CITY           SKY/WX    TMP DP  RH WIND       PRES   REMARKS
LLANO          CLOUDY    48  48 100 SW3       29.91F
HORSESHOE BAY  CLOUDY    51  50  97 CALM      29.87F
KERRVILLE      FOG       49  48  97 CALM      29.90R VSB 1/2
FREDERICKSBRG  FOG       47  46  97 SW6       29.88S VSB 3/4
ROCKSPRINGS    SUNNY     45  45 100 SW5       29.91R
HONDO          CLOUDY    54  52  93 CALM      29.92R
UVALDE         CLOUDY    50  49  97 CALM      29.93S
DEL RIO        FOG       42  42 100 CALM      29.91S VSB 1/4
$$

SOUTHEAST TEXAS

CITY           SKY/WX    TMP DP  RH WIND       PRES   REMARKS
COLLEGE STN    CLOUDY    52  51  97 VRB3      29.87F
CALDWELL       NOT AVBL
CROCKETT       LGT RAIN  50  50 100 S3        29.91R
BRENHAM        LGT RAIN  53  53  99 CALM      29.88F
HUNTSVILLE     LGT RAIN  52  51  97 CALM      29.88F
CONROE         LGT RAIN  53  52  96 NW3       29.89R
HOUSTON BUSH   HVY RAIN  55  53  93 CALM      29.89S FOG
HOUSTON HOBBY  RAIN      56  54  93 VRB5      29.91R
PERLAND        TSTM      58  56  93 CALM      29.92R FOG
WHARTON        LGT RAIN  54  52  95 CALM      29.92R
$$

THE UPPER TEXAS COAST

CITY           SKY/WX    TMP DP  RH WIND       PRES   REMARKS
ORANGE         DRIZZLE  N/A N/A N/A NW5       29.91R
PORT ARTHUR    FOG       61  60  97 NW6       29.88S VSB 3/4
GALVESTON      CLOUDY    62  60  93 N5        29.91S
ANGLETON       LGT RAIN  57  56  96 CALM      29.91R
BAY CITY       LGT RAIN  56  56 100 CALM      29.92R
$$

TEXAS COASTAL BEND, RIO GRANDE PLAINS DEEP SOUTH TEXAS

CITY           SKY/WX    TMP DP  RH WIND       PRES   REMARKS
VICTORIA       LGT RAIN  54  53  97 E6        29.90F FOG
BEEVILLE       LGT RAIN  51  51 100 CALM      29.92R
ROCKPORT       CLOUDY    57  53  86 NW9       29.93R
PORT ARANSAS   CLOUDY    57  55  93 N3        29.92R
PORT LAVACA    DRIZZLE   54  54 100 CALM      29.90F
CORPUS CHRISTI CLOUDY    57  56  96 NW5       29.92R
KINGSVILLE NAS DRIZZLE   58  58 100 NE3       29.92S FOG
COTULLA        CLOUDY    54  51  90 E3        29.91F FOG
LAREDO         CLOUDY    59  49  69 SE5       29.92S
BROWNSVILLE    CLOUDY    62  60  93 SE5       29.92S
PORT ISABEL    CLOUDY    61  61 100 E7        29.91S FOG
HEBBRONVILLE   CLOUDY    58  55  88 CALM      29.93S
MCALLEN        CLOUDY    62  57  83 CALM      29.92F
WESLACO        CLOUDY    59  58  96 N5        29.92S
FALFURRIAS     CLOUDY    59  58  96 CALM      29.91F
EDINBURG       CLOUDY    62  59  91 CALM      29.93S
$$



USA.gov is the U.S. government's official web portal to all federal, state and local government web resources and services.